Tracking 17145 objects as of 23-May-2015
HD Live streaming from Space Station

COSMOS 1596

Track COSMOS 1596 now!
COSMOS 1596 is classified as:


NORAD ID: 15267
Int'l Code: 1984-096A
Perigee: 4,744.9 km
Apogee: 35,648.0 km
Inclination: 67.6 °
Period: 718.3 minutes
Semi major axis: 26567 km
RCS: 8.4284 m2 (large)
Launch date: September 7, 1984
Source: Commonwealth of Independent States (former USSR) (CIS)
Your satellite tracking list
Your tracking list is empty





NASA's NSSDC Master Catalog

Two Line Element Set (TLE):
1 15267U 84096A   15142.12604229 -.00000796  00000-0  73020+0 0  9991
2 15267 067.5787 050.0145 5815979 108.0948 008.1197 02.00483425224958

Source of the keplerian elements: AFSPC

N2YO: 375